Lapse_Rate
5.0 5.1 5.1 4.9 5.2 5.4 5.6 5.6 5.5 5.6 5.8 5.9 5.9 6.0 6.0 6.0 6.0 6.1 6.2 6.0 6.2 6.0 5.7 5.3 5.1 5.2 5.4 5.4 5.3 5.4 5.6 5.4 5.4 5.4 5.6 5.7 5.7 5.6
5.6 5.3 5.2 5.4 5.6 5.7 5.7 5.6 5.2 5.2 5.2 5.4 5.6 5.7 5.8 5.6 5.5 5.7 5.8 5.6 5.6 5.5 5.4 5.4 5.3 5.0 4.8 4.8 5.1 5.3 5.3 5.5 5.4 5.2 5.1 5.5 5.4 5.5
5.6 5.6 5.6 5.6 5.5 5.5 5.5 5.5 5.4 5.0 4.9 5.0 5.3 5.5 5.6 5.7 5.4 5.4 5.5 5.4 5.3 5.3 5.3 5.4 5.4 5.4 5.3 5.1 4.8 4.7 5.0 5.4 5.6 5.6 5.4 5.1 5.3 5.4
5.5 5.5 5.6 5.8 5.9 5.9 5.9 5.9 5.8 5.6 5.5 5.5 5.5 5.5 5.6 5.7 5.7 5.6 5.5 5.5 5.2 5.3 5.5 5.4 5.4 5.6 5.6 5.4 5.1 4.6 4.4 4.5 4.8 5.2 5.1 4.9 5.3 5.4
5.2 5.3 5.3 5.3 5.3 5.3 5.4 5.4 5.5 5.4 5.3 5.5 5.7 5.6 5.7 5.5 5.6 5.6 5.6 5.4 5.3 5.3 5.3 5.3 5.4 5.6 5.6 5.7 5.5 5.4 5.2 4.9 4.6 4.6 4.9 5.5 5.7 5.7
5.1 5.0 5.0 5.1 5.0 5.0 5.1 5.2 5.3 5.4 5.3 5.4 5.5 5.5 5.6 5.6 5.6 5.8 5.7 5.4 5.4 5.3 5.4 5.5 5.4 5.4 5.5 5.6 5.6 5.4 5.3 5.1 4.8 4.8 5.0 5.8 6.7 7.1
5.5 5.6 5.5 5.5 5.4 5.3 5.3 5.2 5.2 5.3 5.3 5.4 5.4 5.4 5.4 5.3 5.2 5.2 5.2 5.1 5.1 5.1 5.2 5.3 5.5 5.4 5.2 5.2 5.4 5.2 5.2 5.2 5.1 5.1 5.2 6.3 7.2 7.0
5.9 5.8 5.9 5.7 5.7 5.5 5.5 5.5 5.5 5.5 5.3 5.1 4.9 4.8 4.9 4.8 4.8 4.8 4.8 4.9 5.1 5.1 5.2 5.3 5.4 5.4 5.5 5.4 5.4 5.5 5.5 5.3 5.4 5.6 6.1 6.5 6.9 6.9
5.8 5.9 5.9 5.8 5.8 5.7 5.6 5.6 5.5 5.5 5.5 5.4 5.3 5.1 5.0 5.0 5.1 5.1 4.9 4.9 5.0 5.3 5.3 5.4 5.3 5.3 5.5 5.6 5.7 5.8 6.0 5.8 5.8 5.9 6.1 6.3 6.6 6.4
5.7 5.6 5.6 5.6 5.7 5.6 5.5 5.4 5.2 5.2 5.2 5.1 5.1 5.0 5.0 5.0 5.0 5.0 5.0 5.0 4.9 4.9 4.9 5.1 5.0 5.0 5.1 5.4 5.6 5.7 5.9 5.9 5.8 5.8 6.0 5.7 6.0 6.3
5.4 5.4 5.4 5.4 5.4 5.4 5.3 5.2 5.0 4.8 4.8 4.8 4.8 4.8 4.8 4.8 4.7 4.7 4.7 4.7 4.7 4.7 4.7 4.6 4.6 4.7 4.7 4.9 5.5 5.9 6.1 6.1 5.9 5.8 5.8 5.7 5.4 5.7
5.4 5.4 5.3 5.4 5.2 5.0 5.0 4.9 4.9 4.8 4.7 4.6 4.6 4.7 4.7 4.7 4.7 4.5 4.4 4.4 4.4 4.6 4.6 4.5 4.5 4.5 4.7 5.8 6.3 6.6 6.6 6.7 6.5 6.3 5.7 5.6 5.7 5.6
5.5 5.4 5.1 5.1 5.0 4.9 4.8 4.8 4.8 4.7 4.7 4.7 4.5 4.5 4.5 4.5 4.5 4.5 4.3 4.3 4.3 4.4 4.5 4.4 4.5 4.8 5.3 6.2 6.6 6.6 6.6 6.5 6.4 6.3 6.5 6.2 5.3 5.0
5.6 5.5 5.2 5.1 4.9 4.8 4.7 4.6 4.7 4.5 4.5 4.5 4.5 4.4 4.3 4.3 4.4 4.3 4.3 4.0 4.1 4.2 4.3 4.3 4.6 5.2 6.1 6.5 6.4 6.3 6.2 6.1 6.2 6.3 6.1 6.0 6.0 5.7
5.0 5.0 4.9 4.9 4.9 4.7 4.6 4.4 4.3 4.4 4.3 4.2 4.3 4.3 4.3 4.3 4.3 4.2 4.2 4.1 4.0 4.0 4.0 4.2 4.7 5.4 6.0 6.2 6.2 6.1 6.2 6.0 5.9 5.9 5.9 6.1 5.8 5.7
4.9 4.6 4.5 4.7 4.8 4.6 4.4 4.2 4.2 4.2 4.1 4.0 4.0 4.1 4.3 4.3 4.2 4.2 4.2 4.1 3.9 3.9 3.9 4.1 4.9 5.7 5.9 5.7 5.8 5.9 5.9 5.9 5.8 5.8 6.0 6.0 6.0 5.9
4.7 4.6 4.3 4.5 4.7 4.6 4.4 4.3 4.2 4.2 4.0 4.1 4.1 4.2 4.1 4.2 4.3 4.1 4.2 4.0 3.8 3.7 3.7 4.1 4.8 5.5 5.8 5.8 5.7 5.6 5.6 5.5 5.6 5.8 6.2 6.2 6.2 6.4
4.9 4.5 4.4 4.3 4.5 4.5 4.4 4.2 4.1 4.0 4.1 4.1 4.0 4.1 4.0 4.1 4.2 4.1 4.2 3.8 3.7 3.6 3.6 4.0 4.8 5.3 5.3 5.3 5.4 5.3 5.2 5.3 5.4 5.7 6.1 6.4 6.5 6.5
4.7 4.4 4.4 4.5 4.6 4.6 4.4 4.3 4.2 4.0 4.0 3.8 3.8 3.9 4.2 4.1 4.1 4.2 3.9 3.6 3.6 3.5 3.6 4.1 4.9 5.3 5.3 5.2 5.0 5.1 5.1 5.2 5.4 5.5 5.8 6.2 6.4 6.5
4.6 4.5 4.5 4.6 4.6 4.7 4.6 4.5 4.3 4.1 3.9 3.9 3.9 3.9 4.2 4.2 4.3 4.3 3.8 3.5 3.4 3.4 3.7 4.4 5.1 5.3 5.1 5.1 5.1 4.4 4.7 5.1 5.3 5.4 5.8 5.8 5.9 6.0
4.5 4.8 4.8 4.7 4.8 4.9 4.8 4.7 4.3 4.1 3.9 3.9 3.9 4.1 4.5 4.4 4.3 3.9 3.6 3.4 3.4 3.5 4.1 4.7 5.1 5.0 5.0 4.9 5.0 4.8 4.4 4.8 5.3 5.7 5.9 6.0 6.0 5.7
4.3 4.3 4.7 5.0 5.0 5.0 5.0 4.8 4.6 4.4 4.2 4.1 4.2 4.7 4.4 4.1 4.1 3.7 3.4 3.2 3.4 3.8 4.4 4.8 4.8 4.8 4.8 4.9 4.9 5.0 5.0 4.7 4.8 5.1 5.8 5.8 5.9 6.3
4.6 4.6 4.8 5.1 5.1 5.0 5.2 4.9 4.6 4.4 4.2 4.2 4.3 4.6 4.2 4.2 3.8 3.4 3.2 3.2 3.5 4.1 4.7 4.7 4.7 4.7 4.9 4.9 5.0 5.2 5.3 5.5 5.8 5.1 4.9 5.4 5.2 5.2
Wind_Speed
6 6 6 4 4 4 4 3 3 3 3 4 3 4 3 5 4 1 2 6 10 15 19 22 22 23 23 24 25 26 27 27 26 25 26 31 31 31
6 5 5 4 5 4 4 4 4 3 3 2 3 3 5 4 8 6 7 10 14 19 20 22 24 24 23 24 24 24 25 26 26 27 27 30 33 34
6 6 7 6 5 4 3 2 3 2 3 3 2 3 3 4 5 6 7 7 8 14 17 16 18 20 19 19 22 25 25 25 24 25 26 29 31 33
9 6 4 3 4 4 2 3 2 3 1 3 2 2 3 3 3 5 4 7 8 12 14 16 13 15 14 14 14 15 19 21 22 23 24 26 27 28
6 7 8 9 8 6 5 5 4 3 3 2 3 2 2 2 4 3 3 4 8 15 14 14 15 15 15 16 17 15 14 13 15 20 24 26 27 28
6 6 6 6 5 6 5 6 5 5 5 4 3 4 3 3 3 3 4 3 6 7 7 11 10 12 14 14 19 19 22 21 21 22 23 26 22 19
4 4 4 4 7 6 4 4 4 3 3 3 3 2 2 3 3 4 3 6 1 4 4 3 3 3 8 10 11 15 16 17 19 19 19 20 24 25
4 4 4 5 6 4 8 11 8 4 4 2 2 2 3 4 3 4 3 3 4 3 4 2 2 3 3 7 12 13 16 18 18 18 18 19 20 21
3 4 4 5 6 4 5 7 9 9 7 2 3 3 3 5 4 4 3 2 3 4 4 3 3 2 2 7 11 12 14 17 18 17 16 16 17 16
3 4 4 4 6 6 3 4 5 5 5 4 5 3 3 3 3 3 4 6 4 3 6 3 3 3 3 2 7 11 13 15 16 16 17 16 17 16
2 2 3 4 6 9 2 2 2 2 3 5 4 4 4 6 7 3 3 3 2 1 3 4 3 6 4 2 4 10 12 13 13 13 15 15 18 16
5 3 4 3 4 5 4 3 3 2 1 3 0 1 5 5 8 4 3 2 2 3 3 5 3 3 4 2 2 3 7 13 15 14 12 14 16 7
3 2 3 4 3 3 3 3 2 3 3 1 2 2 3 4 3 3 3 2 2 2 4 3 2 3 1 3 3 2 3 5 4 7 11 13 13 11
4 3 4 4 2 3 3 2 2 3 1 2 1 1 1 1 2 3 2 2 3 3 3 3 2 3 4 3 3 4 4 4 4 3 4 13 12 13
4 3 9 7 4 2 1 2 3 2 1 0 1 2 2 2 2 2 4 4 4 3 3 2 2 1 2 3 4 4 7 3 3 3 3 4 6 5
5 3 5 6 6 4 3 3 1 2 1 1 1 1 0 1 1 1 1 2 2 2 4 4 4 3 2 3 2 3 4 4 4 3 3 4 2 7
6 3 3 3 4 4 4 4 3 3 2 2 1 0 1 0 1 0 0 1 1 1 3 3 5 8 5 5 3 2 2 3 3 5 5 5 3 4
5 4 4 5 5 5 5 4 4 5 3 2 2 2 1 1 0 1 1 1 0 1 2 2 6 5 4 3 5 2 2 2 6 5 3 3 6 5
4 5 6 6 6 5 4 4 4 4 4 3 3 3 2 2 1 1 0 1 2 1 2 3 3 4 6 6 3 7 1 3 3 6 2 3 6 8
6 7 7 7 6 6 4 4 3 4 3 3 3 3 3 3 1 2 1 1 0 2 2 3 2 2 1 2 3 3 15 6 2 6 7 6 5 13
8 8 8 7 7 6 6 5 5 6 4 4 4 4 3 2 2 2 1 3 2 2 4 4 2 9 2 1 2 5 4 14 11 6 6 5 3 2
7 8 8 7 7 7 6 6 6 6 5 6 5 5 3 3 2 3 2 2 1 2 2 3 3 2 1 2 5 7 6 4 13 11 12 9 3 4
8 8 7 7 7 6 6 6 6 6 6 6 5 5 5 3 3 3 3 3 2 1 2 2 2 2 2 1 5 3 5 3 4 6 3 12 12 12
Wind_Direction
282 272 264 249 249 258 269 262 230 272 275 292 298 319 350 18 22 55 215 250 261 264 263 266 269 268 267 270 272 275 276 272 268 268 273 263 252 247
269 270 268 260 256 250 249 250 251 227 258 244 280 282 309 312 293 287 280 282 288 281 278 275 265 263 266 269 273 273 272 271 266 267 271 271 267 259
276 259 262 268 271 266 278 273 266 245 243 284 253 292 328 332 326 333 331 329 323 319 315 324 310 296 284 282 284 283 277 271 273 276 275 274 271 265
339 355 323 306 327 301 301 314 344 344 44 283 275 297 282 333 7 1 347 339 325 338 28 25 24 31 8 355 340 319 298 286 281 278 278 274 275 278
359 359 352 358 360 6 3 4 350 350 339 302 295 353 350 341 330 331 328 351 11 359 8 22 12 16 23 30 24 20 21 355 320 307 295 282 275 269
327 328 326 333 356 348 337 335 335 331 329 332 314 319 310 323 6 10 335 352 343 11 352 29 17 15 37 30 37 35 35 28 29 29 29 16 355 298
313 325 322 7 2 327 314 324 332 311 295 293 288 302 343 19 17 351 318 325 308 18 341 20 353 4 38 24 25 35 35 33 28 23 21 28 25 17
9 19 26 41 3 58 82 71 59 15 350 345 1 4 27 24 359 341 333 348 328 57 7 310 15 13 359 21 19 30 27 21 24 18 17 13 23 25
12 12 13 40 16 5 99 78 59 48 56 10 52 39 46 20 338 322 335 313 288 1 347 301 8 320 9 19 23 35 22 16 7 3 3 10 8 18
57 19 13 40 20 5 63 68 67 52 42 56 61 68 67 29 351 294 296 307 283 79 15 289 9 306 331 315 5 358 358 6 2 357 359 2 1 360
142 95 10 16 357 343 347 108 126 108 80 74 89 85 75 43 26 11 12 351 317 351 52 332 334 313 303 292 352 353 354 358 2 4 3 5 2 1
282 161 95 41 357 348 334 328 255 150 58 351 42 24 82 47 47 48 12 356 321 348 19 343 329 348 322 312 326 342 357 351 348 355 7 5 5 9
252 202 119 70 9 6 19 37 19 6 306 151 93 47 41 41 28 21 15 348 327 292 12 4 325 335 320 313 306 344 6 335 343 347 349 351 359 357
267 199 160 141 72 24 63 33 334 310 11 76 103 95 9 349 317 325 315 307 298 293 345 16 321 349 323 296 283 339 340 320 352 327 329 335 339 340
268 166 164 171 202 209 205 301 329 36 6 61 143 174 193 226 291 347 341 337 249 254 229 155 152 255 184 265 289 313 332 314 325 329 319 327 326 319
227 195 191 200 224 231 222 249 166 144 166 185 186 228 200 18 33 338 11 318 40 316 267 237 233 172 270 239 221 296 299 312 324 313 316 310 296 303
193 186 194 207 222 221 220 209 199 202 190 172 150 189 221 353 220 206 202 355 80 290 311 312 317 303 245 219 290 242 301 308 298 325 332 317 294 295
188 196 205 213 220 212 210 209 201 207 190 164 164 174 203 170 231 316 65 84 238 291 318 292 346 349 351 326 206 257 316 298 318 312 311 313 312 311
209 213 224 218 220 212 201 190 191 188 162 161 175 175 181 209 168 263 321 57 327 342 296 316 356 10 354 342 286 340 54 306 292 318 285 315 317 313
216 225 228 223 218 213 197 188 178 158 175 177 186 181 174 184 194 204 218 174 235 300 340 328 10 329 273 309 311 274 302 288 265 306 323 309 271 288
223 224 222 221 217 208 202 189 184 186 179 178 187 177 189 175 219 182 208 277 281 330 327 328 269 328 223 248 285 313 296 292 298 296 299 294 282 305
229 230 225 217 211 202 197 193 188 196 187 188 192 181 183 178 190 194 212 228 281 308 291 308 304 289 320 276 309 315 311 299 317 329 325 316 318 322
234 229 222 211 202 198 191 188 191 192 182 185 190 182 177 180 195 209 211 223 242 262 296 295 299 359 284 249 329 286 293 293 318 331 315 330 339 350